Voltar ao catálogo

STARLINK-37460

AtivoComunicaçõesSSO
NORAD 68803·PAYLOAD·🇺🇸 United States

Lançado Apr 23, 2026 de Vandenberg Space Force Base

Loading…

Próximas Passagens (próximas 24 horas)

TLE

AtualizadoSource: CelesTrak SupGP

Época: Sep 14, 2026, 22:34 UTC

1 68803C 26089B   26257.94076389  .00082871  00000+0  25733-2 0  2572
2 68803  97.2845 103.7054 0001881  93.3748 214.3580 15.33386838    16

Acompanhe STARLINK-37460 em tempo real com AllMySat

Download on the App Store